Precipitable_Water
0.44 0.44 0.43 0.42 0.42 0.41 0.38 0.36 0.35 0.35 0.35 0.34 0.32 0.31 0.30 0.29 0.27 0.25 0.23 0.20 0.18 0.17 0.15 0.14 0.14 0.14 0.13 0.13 0.13 0.13 0.13 0.13 0.13 0.12 0.12 0.12 0.11 0.11 0.11 0.11 0.10 0.10 0.10 0.09 0.09 0.09 0.09 0.09 0.09 0.08 0.08 0.08 0.07 0.07 0.07 0.07 0.07 0.07 0.07 0.07 0.07 0.07 0.07 0.07 0.06 0.06 0.07 0.08 0.08 0.08 0.08 0.08 0.09 0.09 0.09 0.09 0.09 0.10 0.11 0.11 0.11 0.11 0.11 0.11 0.11
0.44 0.44 0.43 0.42 0.42 0.41 0.38 0.37 0.36 0.36 0.35 0.34 0.32 0.31 0.30 0.29 0.27 0.25 0.22 0.20 0.18 0.17 0.15 0.15 0.14 0.14 0.13 0.13 0.13 0.13 0.13 0.13 0.13 0.13 0.12 0.12 0.12 0.12 0.11 0.11 0.10 0.10 0.10 0.09 0.09 0.09 0.09 0.09 0.08 0.08 0.08 0.07 0.07 0.07 0.07 0.07 0.07 0.07 0.07 0.07 0.07 0.07 0.08 0.07 0.07 0.07 0.07 0.08 0.08 0.08 0.08 0.09 0.08 0.09 0.09 0.08 0.08 0.09 0.10 0.10 0.11 0.11 0.11 0.12 0.11
0.44 0.43 0.43 0.43 0.42 0.41 0.39 0.37 0.36 0.36 0.35 0.34 0.32 0.31 0.30 0.29 0.27 0.24 0.22 0.20 0.18 0.17 0.16 0.15 0.14 0.14 0.13 0.13 0.13 0.13 0.13 0.13 0.13 0.13 0.12 0.12 0.12 0.12 0.11 0.11 0.10 0.10 0.09 0.09 0.09 0.09 0.09 0.08 0.08 0.08 0.08 0.07 0.07 0.07 0.07 0.07 0.07 0.07 0.07 0.07 0.07 0.07 0.08 0.08 0.08 0.07 0.08 0.08 0.09 0.08 0.08 0.09 0.09 0.09 0.09 0.09 0.09 0.09 0.09 0.09 0.10 0.11 0.11 0.12 0.12
0.44 0.43 0.43 0.43 0.43 0.41 0.39 0.37 0.36 0.36 0.36 0.34 0.32 0.31 0.31 0.29 0.26 0.24 0.22 0.20 0.18 0.17 0.16 0.15 0.14 0.14 0.13 0.13 0.13 0.13 0.13 0.13 0.13 0.13 0.12 0.12 0.12 0.12 0.11 0.11 0.10 0.10 0.09 0.09 0.09 0.09 0.09 0.08 0.08 0.08 0.08 0.07 0.07 0.07 0.07 0.07 0.07 0.07 0.07 0.07 0.08 0.08 0.08 0.08 0.08 0.08 0.08 0.08 0.09 0.09 0.09 0.09 0.09 0.10 0.10 0.10 0.10 0.09 0.09 0.09 0.10 0.10 0.11 0.11 0.12
0.43 0.43 0.43 0.43 0.43 0.41 0.39 0.37 0.36 0.37 0.36 0.34 0.33 0.32 0.31 0.29 0.26 0.24 0.22 0.20 0.18 0.17 0.16 0.15 0.14 0.14 0.13 0.13 0.13 0.13 0.13 0.13 0.13 0.13 0.13 0.12 0.12 0.12 0.11 0.11 0.10 0.10 0.10 0.09 0.09 0.09 0.09 0.08 0.08 0.08 0.07 0.07 0.07 0.07 0.07 0.07 0.07 0.07 0.07 0.07 0.08 0.08 0.08 0.08 0.08 0.09 0.09 0.08 0.09 0.10 0.10 0.10 0.10 0.10 0.10 0.10 0.10 0.11 0.10 0.10 0.09 0.10 0.11 0.12 0.12
0.44 0.43 0.44 0.44 0.42 0.41 0.39 0.37 0.37 0.37 0.36 0.34 0.33 0.32 0.31 0.29 0.26 0.24 0.22 0.19 0.18 0.17 0.16 0.15 0.14 0.13 0.13 0.13 0.13 0.13 0.13 0.13 0.13 0.12 0.13 0.12 0.12 0.12 0.11 0.11 0.11 0.10 0.10 0.09 0.09 0.09 0.09 0.08 0.08 0.08 0.07 0.07 0.06 0.07 0.07 0.07 0.07 0.07 0.07 0.08 0.08 0.08 0.08 0.08 0.09 0.09 0.09 0.09 0.09 0.09 0.10 0.10 0.10 0.10 0.10 0.11 0.11 0.11 0.11 0.11 0.10 0.10 0.10 0.11 0.11
0.45 0.44 0.44 0.43 0.42 0.40 0.39 0.37 0.37 0.37 0.36 0.35 0.33 0.32 0.31 0.28 0.26 0.23 0.21 0.19 0.18 0.17 0.16 0.15 0.14 0.14 0.13 0.13 0.13 0.13 0.13 0.13 0.12 0.12 0.12 0.12 0.12 0.12 0.11 0.11 0.11 0.10 0.10 0.09 0.09 0.09 0.09 0.09 0.08 0.08 0.07 0.07 0.06 0.06 0.07 0.07 0.07 0.07 0.08 0.08 0.08 0.08 0.08 0.08 0.08 0.09 0.09 0.09 0.09 0.10 0.10 0.10 0.10 0.10 0.10 0.11 0.11 0.11 0.11 0.10 0.10 0.10 0.10 0.10 0.10
0.45 0.45 0.44 0.42 0.41 0.40 0.39 0.38 0.38 0.38 0.36 0.35 0.34 0.32 0.30 0.28 0.25 0.23 0.21 0.19 0.18 0.17 0.15 0.14 0.14 0.14 0.13 0.13 0.13 0.13 0.13 0.12 0.12 0.12 0.12 0.12 0.12 0.12 0.11 0.11 0.11 0.10 0.10 0.09 0.09 0.09 0.09 0.09 0.08 0.08 0.07 0.07 0.07 0.07 0.07 0.07 0.07 0.07 0.08 0.08 0.08 0.08 0.08 0.08 0.08 0.08 0.08 0.08 0.08 0.09 0.09 0.10 0.10 0.10 0.11 0.11 0.10 0.11 0.11 0.11 0.10 0.10 0.10 0.10 0.10
0.45 0.44 0.43 0.42 0.41 0.40 0.40 0.39 0.39 0.38 0.36 0.35 0.34 0.32 0.30 0.27 0.24 0.23 0.21 0.19 0.18 0.16 0.15 0.14 0.14 0.13 0.13 0.13 0.12 0.12 0.12 0.12 0.12 0.12 0.12 0.12 0.12 0.12 0.11 0.11 0.11 0.10 0.10 0.09 0.09 0.09 0.09 0.09 0.08 0.08 0.07 0.07 0.07 0.07 0.07 0.08 0.08 0.08 0.08 0.08 0.08 0.08 0.08 0.08 0.08 0.08 0.08 0.08 0.08 0.09 0.09 0.09 0.09 0.09 0.10 0.10 0.10 0.10 0.11 0.11 0.11 0.11 0.11 0.10 0.10
0.45 0.45 0.43 0.42 0.41 0.41 0.40 0.40 0.40 0.38 0.37 0.35 0.34 0.32 0.29 0.27 0.24 0.23 0.21 0.19 0.17 0.16 0.15 0.14 0.13 0.13 0.12 0.12 0.12 0.12 0.12 0.12 0.11 0.11 0.11 0.11 0.12 0.12 0.12 0.11 0.11 0.10 0.10 0.09 0.09 0.09 0.09 0.08 0.08 0.08 0.07 0.07 0.07 0.07 0.07 0.08 0.08 0.08 0.08 0.08 0.08 0.08 0.08 0.08 0.08 0.08 0.08 0.08 0.08 0.09 0.09 0.09 0.09 0.09 0.10 0.10 0.10 0.11 0.10 0.11 0.11 0.11 0.11 0.11 0.10
0.45 0.44 0.43 0.43 0.43 0.42 0.41 0.41 0.40 0.38 0.36 0.35 0.34 0.31 0.29 0.27 0.24 0.22 0.20 0.18 0.17 0.16 0.15 0.14 0.13 0.13 0.12 0.12 0.12 0.12 0.11 0.11 0.11 0.11 0.12 0.12 0.13 0.12 0.11 0.11 0.11 0.10 0.10 0.09 0.09 0.09 0.09 0.09 0.08 0.08 0.07 0.07 0.07 0.07 0.07 0.08 0.08 0.08 0.08 0.08 0.08 0.08 0.08 0.08 0.08 0.08 0.08 0.09 0.09 0.09 0.09 0.09 0.10 0.10 0.10 0.10 0.11 0.10 0.10 0.10 0.11 0.11 0.11 0.10 0.09
0.45 0.44 0.43 0.43 0.43 0.42 0.41 0.41 0.39 0.38 0.37 0.36 0.33 0.31 0.29 0.27 0.24 0.21 0.20 0.18 0.17 0.16 0.15 0.14 0.13 0.13 0.12 0.12 0.12 0.11 0.11 0.11 0.11 0.11 0.11 0.12 0.13 0.12 0.12 0.11 0.10 0.10 0.09 0.09 0.09 0.09 0.09 0.08 0.08 0.08 0.07 0.07 0.07 0.07 0.07 0.08 0.08 0.08 0.08 0.08 0.08 0.09 0.09 0.09 0.08 0.09 0.09 0.09 0.09 0.09 0.09 0.10 0.10 0.10 0.10 0.10 0.10 0.11 0.11 0.11 0.11 0.11 0.11 0.11 0.10
0.45 0.44 0.44 0.43 0.43 0.42 0.41 0.41 0.40 0.39 0.38 0.36 0.33 0.31 0.29 0.26 0.23 0.21 0.19 0.18 0.17 0.16 0.14 0.14 0.13 0.12 0.12 0.12 0.11 0.11 0.11 0.11 0.11 0.11 0.11 0.11 0.12 0.12 0.12 0.11 0.10 0.09 0.09 0.09 0.09 0.09 0.08 0.08 0.08 0.08 0.07 0.07 0.07 0.07 0.07 0.08 0.08 0.08 0.08 0.08 0.09 0.09 0.09 0.09 0.10 0.10 0.10 0.10 0.10 0.10 0.10 0.10 0.10 0.10 0.11 0.11 0.11 0.11 0.11 0.11 0.11 0.11 0.11 0.11 0.11
0.45 0.45 0.44 0.43 0.43 0.42 0.42 0.41 0.40 0.38 0.37 0.36 0.33 0.30 0.28 0.25 0.23 0.21 0.20 0.18 0.17 0.15 0.14 0.13 0.13 0.12 0.12 0.12 0.11 0.11 0.11 0.11 0.11 0.11 0.11 0.11 0.11 0.12 0.11 0.11 0.10 0.09 0.09 0.09 0.09 0.09 0.08 0.08 0.08 0.07 0.07 0.07 0.07 0.07 0.07 0.07 0.08 0.08 0.08 0.08 0.08 0.09 0.09 0.09 0.10 0.10 0.10 0.10 0.10 0.10 0.10 0.11 0.11 0.11 0.12 0.12 0.11 0.11 0.11 0.10 0.11 0.10 0.11 0.10 0.11
0.45 0.45 0.44 0.44 0.45 0.44 0.43 0.42 0.40 0.39 0.38 0.35 0.32 0.29 0.27 0.25 0.23 0.21 0.19 0.18 0.16 0.15 0.14 0.13 0.13 0.12 0.12 0.11 0.11 0.11 0.11 0.11 0.11 0.11 0.11 0.11 0.11 0.11 0.11 0.10 0.10 0.09 0.09 0.09 0.09 0.09 0.08 0.08 0.08 0.07 0.07 0.07 0.07 0.07 0.07 0.07 0.08 0.08 0.08 0.08 0.08 0.08 0.09 0.09 0.10 0.10 0.10 0.11 0.11 0.11 0.11 0.11 0.12 0.12 0.13 0.13 0.12 0.12 0.12 0.11 0.11 0.11 0.11 0.11 0.11
0.46 0.45 0.45 0.45 0.46 0.45 0.44 0.42 0.40 0.39 0.37 0.35 0.32 0.29 0.27 0.25 0.22 0.20 0.19 0.17 0.16 0.15 0.14 0.13 0.13 0.12 0.12 0.11 0.11 0.11 0.11 0.11 0.11 0.11 0.10 0.10 0.11 0.11 0.10 0.10 0.09 0.09 0.09 0.09 0.09 0.09 0.09 0.08 0.08 0.07 0.07 0.07 0.07 0.07 0.07 0.07 0.08 0.08 0.08 0.08 0.08 0.08 0.09 0.10 0.10 0.11 0.11 0.11 0.11 0.11 0.11 0.12 0.13 0.13 0.14 0.13 0.13 0.12 0.12 0.12 0.12 0.11 0.11 0.10 0.10
0.46 0.46 0.46 0.47 0.47 0.45 0.43 0.41 0.39 0.39 0.38 0.35 0.32 0.29 0.27 0.24 0.22 0.20 0.18 0.17 0.16 0.15 0.14 0.13 0.13 0.12 0.11 0.11 0.11 0.11 0.11 0.11 0.10 0.10 0.10 0.10 0.10 0.10 0.10 0.09 0.09 0.09 0.09 0.09 0.09 0.09 0.09 0.08 0.08 0.07 0.07 0.07 0.07 0.07 0.07 0.08 0.08 0.07 0.07 0.07 0.08 0.08 0.08 0.10 0.10 0.11 0.11 0.11 0.11 0.11 0.12 0.13 0.13 0.13 0.13 0.13 0.13 0.12 0.12 0.12 0.11 0.11 0.10 0.10 0.10
0.47 0.47 0.47 0.48 0.47 0.45 0.43 0.40 0.39 0.39 0.38 0.35 0.31 0.28 0.26 0.23 0.21 0.19 0.18 0.16 0.15 0.15 0.14 0.13 0.12 0.12 0.11 0.11 0.11 0.11 0.11 0.11 0.10 0.10 0.10 0.10 0.10 0.10 0.09 0.09 0.09 0.09 0.09 0.10 0.10 0.09 0.09 0.08 0.08 0.07 0.07 0.07 0.07 0.07 0.07 0.08 0.07 0.07 0.07 0.07 0.07 0.07 0.08 0.09 0.10 0.11 0.11 0.11 0.11 0.11 0.11 0.12 0.12 0.12 0.13 0.13 0.13 0.13 0.12 0.11 0.11 0.11 0.10 0.10 0.10
0.48 0.49 0.49 0.48 0.46 0.45 0.42 0.41 0.40 0.39 0.36 0.33 0.30 0.27 0.24 0.22 0.20 0.19 0.18 0.16 0.15 0.15 0.14 0.13 0.12 0.12 0.11 0.11 0.11 0.11 0.10 0.10 0.10 0.10 0.10 0.10 0.10 0.10 0.09 0.09 0.09 0.09 0.09 0.09 0.09 0.09 0.09 0.08 0.08 0.07 0.07 0.07 0.07 0.07 0.07 0.08 0.07 0.07 0.07 0.07 0.07 0.07 0.08 0.09 0.10 0.10 0.10 0.10 0.10 0.11 0.11 0.12 0.12 0.13 0.14 0.14 0.14 0.14 0.13 0.12 0.12 0.11 0.10 0.10 0.10
0.50 0.51 0.50 0.48 0.46 0.44 0.42 0.41 0.40 0.38 0.35 0.32 0.29 0.26 0.24 0.22 0.20 0.19 0.17 0.16 0.15 0.14 0.13 0.13 0.12 0.11 0.11 0.11 0.11 0.11 0.10 0.10 0.10 0.10 0.10 0.09 0.10 0.10 0.09 0.09 0.09 0.09 0.09 0.09 0.09 0.09 0.09 0.08 0.08 0.07 0.07 0.07 0.07 0.07 0.07 0.08 0.07 0.07 0.07 0.07 0.07 0.07 0.08 0.09 0.10 0.10 0.09 0.09 0.10 0.10 0.11 0.12 0.13 0.13 0.14 0.14 0.14 0.13 0.13 0.12 0.12 0.11 0.10 0.10 0.10
0.52 0.51 0.48 0.46 0.44 0.43 0.41 0.40 0.39 0.37 0.34 0.32 0.29 0.26 0.24 0.22 0.20 0.18 0.17 0.16 0.15 0.14 0.13 0.12 0.12 0.11 0.11 0.11 0.11 0.11 0.10 0.10 0.10 0.10 0.09 0.09 0.09 0.09 0.09 0.09 0.09 0.09 0.09 0.09 0.09 0.08 0.08 0.08 0.08 0.07 0.07 0.07 0.07 0.07 0.08 0.08 0.08 0.07 0.07 0.07 0.07 0.08 0.09 0.09 0.09 0.09 0.09 0.10 0.10 0.11 0.11 0.12 0.13 0.14 0.14 0.14 0.13 0.13 0.13 0.12 0.12 0.11 0.11 0.10 0.10
0.52 0.50 0.47 0.45 0.44 0.43 0.41 0.40 0.39 0.36 0.34 0.32 0.30 0.26 0.24 0.22 0.20 0.18 0.17 0.15 0.15 0.14 0.13 0.12 0.12 0.11 0.11 0.11 0.11 0.10 0.10 0.10 0.10 0.10 0.09 0.09 0.09 0.09 0.09 0.09 0.09 0.09 0.09 0.09 0.09 0.08 0.08 0.08 0.07 0.07 0.07 0.07 0.07 0.07 0.08 0.08 0.08 0.07 0.07 0.08 0.08 0.09 0.09 0.09 0.09 0.09 0.09 0.10 0.10 0.11 0.12 0.12 0.13 0.14 0.14 0.14 0.13 0.13 0.12 0.12 0.12 0.11 0.11 0.11 0.10
0.52 0.50 0.47 0.45 0.44 0.43 0.41 0.40 0.39 0.37 0.35 0.32 0.29 0.25 0.23 0.21 0.19 0.17 0.16 0.15 0.14 0.13 0.13 0.12 0.11 0.11 0.11 0.11 0.10 0.10 0.10 0.10 0.10 0.09 0.09 0.09 0.09 0.09 0.09 0.09 0.09 0.09 0.09 0.09 0.08 0.08 0.08 0.08 0.08 0.07 0.07 0.07 0.07 0.07 0.07 0.08 0.07 0.07 0.07 0.08 0.08 0.08 0.08 0.08 0.08 0.09 0.09 0.10 0.11 0.11 0.12 0.13 0.14 0.14 0.14 0.13 0.13 0.13 0.12 0.12 0.12 0.12 0.11 0.11 0.11
0.51 0.49 0.47 0.46 0.44 0.42 0.41 0.41 0.39 0.37 0.34 0.31 0.27 0.25 0.23 0.20 0.18 0.17 0.16 0.15 0.14 0.13 0.12 0.12 0.11 0.11 0.10 0.10 0.10 0.10 0.10 0.10 0.10 0.09 0.09 0.09 0.09 0.09 0.09 0.09 0.09 0.09 0.09 0.09 0.09 0.08 0.08 0.08 0.07 0.07 0.07 0.07 0.07 0.07 0.07 0.07 0.07 0.07 0.08 0.08 0.08 0.08 0.08 0.08 0.08 0.09 0.10 0.10 0.11 0.12 0.13 0.14 0.14 0.14 0.13 0.13 0.13 0.12 0.12 0.12 0.12 0.12 0.11 0.11 0.11
0.50 0.49 0.47 0.46 0.44 0.42 0.42 0.41 0.39 0.36 0.33 0.29 0.26 0.23 0.21 0.19 0.17 0.16 0.15 0.14 0.14 0.13 0.12 0.12 0.11 0.11 0.10 0.10 0.10 0.10 0.10 0.10 0.10 0.09 0.09 0.09 0.09 0.09 0.09 0.09 0.09 0.09 0.09 0.09 0.09 0.08 0.08 0.08 0.07 0.07 0.07 0.07 0.07 0.07 0.07 0.07 0.07 0.07 0.08 0.08 0.08 0.07 0.07 0.07 0.08 0.09 0.10 0.11 0.11 0.12 0.14 0.14 0.14 0.14 0.13 0.13 0.13 0.12 0.12 0.12 0.12 0.11 0.11 0.11 0.11
0.50 0.49 0.47 0.45 0.43 0.42 0.42 0.40 0.38 0.36 0.31 0.28 0.25 0.23 0.20 0.18 0.16 0.15 0.15 0.14 0.13 0.12 0.12 0.11 0.11 0.11 0.10 0.10 0.09 0.09 0.10 0.10 0.09 0.09 0.09 0.09 0.09 0.09 0.09 0.09 0.09 0.09 0.09 0.09 0.08 0.08 0.08 0.08 0.07 0.07 0.07 0.06 0.06 0.07 0.07 0.07 0.07 0.08 0.08 0.08 0.08 0.07 0.07 0.08 0.09 0.10 0.10 0.11 0.12 0.13 0.14 0.15 0.14 0.14 0.13 0.12 0.12 0.11 0.11 0.11 0.11 0.10 0.11 0.11 0.11
0.50 0.48 0.46 0.44 0.43 0.43 0.42 0.40 0.38 0.35 0.30 0.26 0.24 0.22 0.20 0.18 0.16 0.15 0.14 0.14 0.13 0.12 0.12 0.11 0.11 0.10 0.10 0.10 0.09 0.09 0.09 0.09 0.09 0.09 0.09 0.09 0.09 0.09 0.09 0.09 0.09 0.09 0.09 0.09 0.09 0.08 0.08 0.08 0.07 0.07 0.07 0.06 0.06 0.07 0.07 0.07 0.08 0.08 0.08 0.08 0.07 0.07 0.07 0.08 0.09 0.11 0.12 0.12 0.13 0.14 0.15 0.15 0.14 0.13 0.12 0.12 0.11 0.11 0.11 0.10 0.10 0.10 0.10 0.10 0.10
0.49 0.48 0.46 0.44 0.44 0.44 0.42 0.40 0.38 0.34 0.29 0.25 0.23 0.21 0.19 0.17 0.16 0.15 0.14 0.13 0.13 0.12 0.11 0.11 0.11 0.10 0.10 0.09 0.09 0.09 0.09 0.09 0.09 0.09 0.09 0.09 0.09 0.09 0.09 0.09 0.09 0.09 0.09 0.09 0.09 0.08 0.08 0.07 0.07 0.07 0.07 0.06 0.06 0.06 0.07 0.07 0.08 0.08 0.08 0.08 0.07 0.07 0.08 0.09 0.11 0.12 0.13 0.14 0.14 0.15 0.15 0.14 0.13 0.12 0.12 0.11 0.11 0.11 0.11 0.10 0.10 0.10 0.10 0.10 0.10
0.48 0.47 0.45 0.44 0.44 0.44 0.42 0.40 0.37 0.33 0.28 0.24 0.22 0.20 0.18 0.17 0.16 0.15 0.14 0.14 0.13 0.12 0.12 0.11 0.11 0.10 0.10 0.09 0.09 0.09 0.09 0.09 0.09 0.09 0.09 0.09 0.09 0.09 0.09 0.09 0.09 0.09 0.09 0.09 0.08 0.08 0.08 0.07 0.07 0.06 0.06 0.06 0.06 0.06 0.06 0.07 0.08 0.08 0.08 0.07 0.07 0.07 0.08 0.10 0.11 0.12 0.13 0.14 0.15 0.14 0.14 0.13 0.12 0.12 0.11 0.11 0.11 0.11 0.10 0.10 0.10 0.10 0.10 0.10 0.09
0.48 0.47 0.46 0.45 0.45 0.44 0.42 0.39 0.36 0.31 0.25 0.22 0.20 0.19 0.18 0.17 0.16 0.15 0.14 0.13 0.13 0.12 0.12 0.11 0.11 0.10 0.09 0.09 0.10 0.09 0.09 0.10 0.10 0.09 0.09 0.09 0.09 0.09 0.09 0.09 0.09 0.09 0.09 0.08 0.08 0.08 0.07 0.07 0.06 0.06 0.06 0.05 0.05 0.06 0.06 0.07 0.08 0.08 0.08 0.07 0.07 0.07 0.09 0.11 0.12 0.13 0.14 0.15 0.15 0.14 0.13 0.13 0.12 0.11 0.11 0.11 0.11 0.11 0.10 0.10 0.10 0.10 0.09 0.09 0.09
0.48 0.47 0.47 0.46 0.45 0.43 0.41 0.38 0.34 0.28 0.24 0.22 0.20 0.19 0.18 0.17 0.16 0.15 0.14 0.13 0.13 0.12 0.12 0.11 0.10 0.10 0.09 0.09 0.10 0.10 0.10 0.10 0.10 0.09 0.09 0.09 0.09 0.09 0.09 0.09 0.09 0.09 0.08 0.08 0.08 0.07 0.07 0.06 0.06 0.06 0.06 0.05 0.05 0.06 0.06 0.07 0.08 0.08 0.07 0.06 0.07 0.08 0.10 0.11 0.13 0.14 0.15 0.15 0.14 0.14 0.13 0.12 0.11 0.11 0.11 0.11 0.10 0.10 0.10 0.10 0.10 0.09 0.09 0.09 0.09
0.49 0.48 0.47 0.46 0.45 0.43 0.40 0.36 0.31 0.26 0.23 0.21 0.20 0.19 0.17 0.16 0.16 0.15 0.14 0.13 0.12 0.12 0.12 0.11 0.10 0.10 0.10 0.10 0.10 0.10 0.10 0.10 0.10 0.09 0.09 0.09 0.09 0.09 0.09 0.09 0.09 0.08 0.08 0.08 0.07 0.07 0.07 0.06 0.06 0.06 0.05 0.05 0.05 0.06 0.06 0.07 0.08 0.08 0.07 0.06 0.07 0.09 0.11 0.12 0.14 0.15 0.15 0.15 0.14 0.13 0.13 0.12 0.11 0.11 0.11 0.10 0.10 0.10 0.10 0.09 0.09 0.09 0.09 0.09 0.09
0.49 0.49 0.47 0.46 0.44 0.42 0.39 0.34 0.28 0.24 0.22 0.21 0.19 0.18 0.17 0.16 0.15 0.14 0.14 0.13 0.12 0.12 0.11 0.11 0.10 0.10 0.10 0.10 0.10 0.10 0.10 0.10 0.10 0.09 0.09 0.09 0.09 0.09 0.08 0.09 0.09 0.08 0.08 0.08 0.07 0.07 0.07 0.06 0.06 0.06 0.05 0.05 0.05 0.06 0.07 0.08 0.08 0.07 0.06 0.06 0.08 0.10 0.12 0.13 0.15 0.15 0.15 0.14 0.14 0.13 0.12 0.12 0.11 0.10 0.10 0.10 0.10 0.10 0.09 0.09 0.09 0.09 0.09 0.09 0.09
0.50 0.49 0.47 0.46 0.44 0.41 0.38 0.32 0.27 0.24 0.22 0.20 0.19 0.18 0.17 0.16 0.15 0.14 0.13 0.12 0.12 0.11 0.11 0.10 0.10 0.10 0.10 0.10 0.10 0.10 0.10 0.10 0.10 0.09 0.09 0.09 0.09 0.08 0.08 0.08 0.08 0.08 0.08 0.07 0.07 0.07 0.06 0.06 0.06 0.05 0.05 0.05 0.05 0.06 0.07 0.08 0.08 0.07 0.06 0.07 0.09 0.11 0.13 0.14 0.15 0.15 0.15 0.14 0.14 0.13 0.12 0.11 0.11 0.10 0.10 0.10 0.10 0.09 0.09 0.09 0.09 0.09 0.09 0.09 0.09
0.49 0.48 0.46 0.44 0.42 0.39 0.35 0.30 0.26 0.23 0.22 0.20 0.19 0.18 0.17 0.16 0.15 0.14 0.13 0.12 0.11 0.10 0.10 0.10 0.10 0.10 0.10 0.10 0.10 0.10 0.10 0.10 0.10 0.09 0.09 0.08 0.08 0.08 0.08 0.08 0.08 0.08 0.08 0.08 0.07 0.07 0.06 0.06 0.05 0.05 0.05 0.05 0.06 0.06 0.07 0.08 0.07 0.07 0.07 0.08 0.10 0.12 0.14 0.15 0.15 0.15 0.14 0.14 0.13 0.13 0.12 0.11 0.10 0.10 0.10 0.10 0.09 0.09 0.09 0.09 0.09 0.09 0.09 0.09 0.09
0.50 0.48 0.46 0.44 0.41 0.38 0.35 0.29 0.25 0.23 0.21 0.20 0.19 0.18 0.17 0.16 0.15 0.14 0.13 0.12 0.11 0.10 0.10 0.10 0.10 0.10 0.10 0.10 0.10 0.10 0.10 0.09 0.09 0.09 0.08 0.08 0.08 0.08 0.08 0.08 0.08 0.08 0.07 0.07 0.07 0.07 0.06 0.06 0.06 0.05 0.05 0.05 0.06 0.07 0.08 0.08 0.07 0.06 0.07 0.09 0.11 0.13 0.14 0.15 0.15 0.15 0.14 0.14 0.13 0.12 0.12 0.11 0.10 0.10 0.10 0.10 0.09 0.09 0.09 0.09 0.09 0.09 0.09 0.09 0.08
0.50 0.48 0.47 0.44 0.41 0.38 0.34 0.28 0.24 0.23 0.21 0.20 0.19 0.18 0.16 0.16 0.15 0.14 0.13 0.12 0.11 0.10 0.10 0.10 0.10 0.09 0.09 0.09 0.09 0.09 0.09 0.09 0.09 0.09 0.08 0.08 0.08 0.08 0.08 0.08 0.08 0.07 0.07 0.07 0.07 0.06 0.06 0.06 0.06 0.06 0.05 0.05 0.06 0.07 0.08 0.07 0.07 0.07 0.08 0.10 0.13 0.14 0.15 0.15 0.15 0.15 0.14 0.13 0.13 0.12 0.11 0.10 0.10 0.10 0.10 0.09 0.09 0.09 0.09 0.09 0.09 0.09 0.09 0.09 0.08
0.50 0.49 0.47 0.43 0.40 0.38 0.33 0.27 0.24 0.23 0.22 0.20 0.19 0.17 0.16 0.15 0.14 0.13 0.12 0.11 0.10 0.10 0.10 0.10 0.09 0.09 0.09 0.09 0.09 0.09 0.09 0.09 0.08 0.08 0.08 0.08 0.08 0.08 0.08 0.08 0.07 0.07 0.07 0.07 0.07 0.06 0.06 0.06 0.06 0.05 0.05 0.06 0.07 0.08 0.08 0.07 0.07 0.07 0.09 0.11 0.14 0.15 0.15 0.15 0.15 0.14 0.14 0.13 0.12 0.11 0.11 0.10 0.10 0.10 0.10 0.09 0.09 0.09 0.09 0.09 0.08 0.08 0.08 0.08 0.08
0.50 0.48 0.45 0.42 0.40 0.37 0.32 0.27 0.24 0.23 0.22 0.20 0.18 0.17 0.16 0.15 0.14 0.13 0.12 0.11 0.10 0.10 0.10 0.10 0.09 0.09 0.09 0.09 0.09 0.09 0.09 0.08 0.08 0.08 0.08 0.08 0.08 0.08 0.08 0.08 0.07 0.07 0.07 0.07 0.07 0.06 0.06 0.06 0.06 0.05 0.06 0.06 0.07 0.08 0.07 0.07 0.07 0.08 0.10 0.13 0.15 0.15 0.15 0.15 0.15 0.14 0.13 0.12 0.12 0.11 0.10 0.10 0.10 0.10 0.10 0.09 0.09 0.09 0.09 0.08 0.08 0.08 0.08 0.08 0.08
0.50 0.47 0.45 0.43 0.40 0.37 0.32 0.28 0.25 0.24 0.21 0.19 0.17 0.16 0.15 0.14 0.13 0.12 0.12 0.11 0.10 0.10 0.10 0.10 0.09 0.09 0.09 0.09 0.09 0.08 0.08 0.08 0.08 0.08 0.08 0.08 0.08 0.08 0.08 0.08 0.07 0.07 0.07 0.07 0.07 0.06 0.06 0.06 0.06 0.05 0.06 0.07 0.08 0.08 0.07 0.07 0.07 0.09 0.12 0.14 0.15 0.15 0.15 0.15 0.14 0.14 0.13 0.12 0.11 0.11 0.10 0.10 0.10 0.10 0.09 0.09 0.09 0.09 0.08 0.08 0.08 0.08 0.08 0.08 0.07
0.49 0.47 0.46 0.43 0.40 0.36 0.32 0.28 0.26 0.23 0.20 0.18 0.17 0.16 0.15 0.14 0.13 0.12 0.12 0.11 0.10 0.10 0.10 0.10 0.09 0.09 0.09 0.09 0.08 0.08 0.08 0.08 0.08 0.08 0.08 0.08 0.08 0.08 0.08 0.08 0.08 0.07 0.07 0.07 0.06 0.06 0.06 0.06 0.05 0.05 0.06 0.07 0.08 0.07 0.07 0.07 0.08 0.11 0.14 0.15 0.15 0.15 0.15 0.15 0.14 0.13 0.12 0.12 0.11 0.10 0.10 0.10 0.10 0.09 0.09 0.09 0.09 0.09 0.09 0.08 0.08 0.08 0.08 0.07 0.07
0.49 0.48 0.46 0.43 0.40 0.37 0.32 0.29 0.26 0.23 0.20 0.18 0.16 0.16 0.15 0.14 0.13 0.12 0.12 0.11 0.11 0.10 0.10 0.10 0.09 0.09 0.09 0.08 0.08 0.08 0.08 0.08 0.08 0.08 0.08 0.08 0.08 0.08 0.08 0.08 0.08 0.07 0.07 0.07 0.06 0.06 0.06 0.06 0.05 0.06 0.07 0.08 0.08 0.07 0.07 0.08 0.10 0.13 0.15 0.15 0.15 0.15 0.15 0.14 0.14 0.13 0.12 0.11 0.11 0.10 0.10 0.10 0.10 0.09 0.09 0.09 0.09 0.09 0.08 0.08 0.08 0.08 0.07 0.07 0.07
0.50 0.48 0.45 0.43 0.41 0.38 0.33 0.29 0.25 0.22 0.19 0.17 0.16 0.15 0.14 0.14 0.13 0.12 0.12 0.11 0.10 0.10 0.10 0.10 0.09 0.09 0.08 0.08 0.08 0.08 0.08 0.08 0.08 0.08 0.08 0.08 0.08 0.08 0.08 0.08 0.07 0.07 0.07 0.07 0.06 0.06 0.06 0.05 0.06 0.06 0.07 0.08 0.07 0.07 0.07 0.09 0.12 0.14 0.15 0.15 0.15 0.15 0.15 0.14 0.13 0.12 0.11 0.11 0.10 0.10 0.10 0.10 0.09 0.09 0.09 0.09 0.09 0.08 0.08 0.08 0.08 0.07 0.07 0.07 0.07
0.49 0.46 0.44 0.44 0.41 0.37 0.33 0.29 0.25 0.22 0.19 0.17 0.16 0.15 0.14 0.13 0.13 0.12 0.12 0.11 0.10 0.10 0.10 0.10 0.09 0.09 0.08 0.08 0.08 0.08 0.08 0.08 0.08 0.08 0.08 0.08 0.08 0.08 0.08 0.08 0.07 0.07 0.07 0.07 0.06 0.06 0.06 0.06 0.06 0.07 0.08 0.08 0.07 0.07 0.09 0.11 0.14 0.15 0.16 0.16 0.15 0.15 0.14 0.13 0.12 0.12 0.11 0.10 0.10 0.10 0.10 0.10 0.09 0.09 0.09 0.09 0.08 0.08 0.08 0.08 0.07 0.07 0.07 0.07 0.07
0.47 0.46 0.46 0.44 0.40 0.37 0.33 0.29 0.25 0.21 0.18 0.16 0.15 0.14 0.14 0.13 0.13 0.12 0.12 0.11 0.10 0.10 0.10 0.10 0.09 0.08 0.08 0.08 0.08 0.08 0.08 0.08 0.08 0.08 0.08 0.08 0.08 0.08 0.08 0.07 0.07 0.07 0.07 0.06 0.06 0.06 0.06 0.06 0.06 0.07 0.08 0.07 0.07 0.08 0.11 0.14 0.15 0.16 0.16 0.16 0.15 0.15 0.14 0.13 0.12 0.11 0.11 0.10 0.10 0.10 0.09 0.09 0.09 0.09 0.09 0.08 0.08 0.08 0.07 0.07 0.07 0.07 0.07 0.07 0.07
0.48 0.48 0.46 0.43 0.41 0.38 0.33 0.28 0.23 0.20 0.17 0.16 0.15 0.14 0.14 0.13 0.13 0.12 0.11 0.11 0.11 0.10 0.10 0.09 0.08 0.08 0.08 0.08 0.08 0.08 0.08 0.08 0.08 0.08 0.08 0.08 0.08 0.08 0.08 0.07 0.07 0.07 0.07 0.06 0.06 0.06 0.06 0.06 0.07 0.08 0.07 0.07 0.07 0.10 0.13 0.15 0.16 0.16 0.16 0.16 0.15 0.15 0.14 0.13 0.12 0.11 0.10 0.10 0.10 0.09 0.09 0.09 0.09 0.09 0.08 0.08 0.08 0.07 0.07 0.07 0.07 0.07 0.07 0.07 0.07
0.49 0.47 0.44 0.43 0.42 0.38 0.32 0.26 0.22 0.19 0.17 0.15 0.14 0.14 0.13 0.13 0.12 0.12 0.11 0.11 0.11 0.10 0.09 0.08 0.08 0.08 0.08 0.08 0.08 0.08 0.08 0.08 0.08 0.08 0.08 0.08 0.08 0.08 0.07 0.07 0.07 0.07 0.07 0.06 0.06 0.06 0.06 0.07 0.08 0.07 0.07 0.07 0.09 0.12 0.15 0.16 0.16 0.16 0.16 0.16 0.15 0.14 0.13 0.12 0.12 0.11 0.10 0.10 0.10 0.09 0.09 0.09 0.09 0.08 0.08 0.07 0.07 0.07 0.07 0.07 0.07 0.07 0.07 0.07 0.07
0.48 0.46 0.45 0.44 0.40 0.36 0.31 0.26 0.21 0.18 0.16 0.15 0.14 0.14 0.13 0.13 0.12 0.12 0.12 0.11 0.10 0.09 0.08 0.08 0.08 0.08 0.08 0.08 0.08 0.08 0.08 0.08 0.08 0.08 0.08 0.08 0.08 0.08 0.07 0.07 0.07 0.07 0.06 0.06 0.06 0.06 0.06 0.07 0.08 0.07 0.07 0.08 0.11 0.14 0.16 0.16 0.16 0.16 0.16 0.16 0.15 0.14 0.13 0.12 0.11 0.11 0.10 0.10 0.10 0.09 0.09 0.09 0.08 0.08 0.07 0.07 0.07 0.07 0.06 0.07 0.07 0.07 0.07 0.07 0.07
0.48 0.47 0.46 0.42 0.39 0.36 0.31 0.25 0.20 0.17 0.15 0.15 0.14 0.14 0.13 0.13 0.12 0.12 0.12 0.11 0.10 0.09 0.08 0.08 0.08 0.08 0.08 0.08 0.08 0.08 0.08 0.08 0.08 0.08 0.08 0.08 0.08 0.07 0.07 0.07 0.07 0.07 0.06 0.06 0.06 0.06 0.07 0.08 0.07 0.07 0.08 0.10 0.13 0.15 0.16 0.16 0.16 0.16 0.16 0.15 0.14 0.13 0.12 0.12 0.11 0.10 0.10 0.10 0.10 0.09 0.09 0.08 0.07 0.07 0.07 0.07 0.07 0.07 0.07 0.07 0.07 0.07 0.07 0.07 0.07
0.48 0.47 0.44 0.41 0.40 0.36 0.30 0.24 0.20 0.17 0.16 0.15 0.14 0.13 0.13 0.13 0.13 0.12 0.11 0.10 0.09 0.08 0.08 0.08 0.08 0.08 0.08 0.08 0.08 0.08 0.08 0.08 0.08 0.08 0.08 0.08 0.07 0.07 0.07 0.07 0.07 0.06 0.06 0.06 0.06 0.06 0.07 0.07 0.07 0.07 0.09 0.12 0.15 0.16 0.16 0.16 0.16 0.16 0.15 0.15 0.13 0.13 0.12 0.11 0.11 0.10 0.10 0.10 0.10 0.09 0.08 0.07 0.07 0.07 0.07 0.07 0.07 0.07 0.07 0.07 0.07 0.06 0.06 0.07 0.07
0.48 0.45 0.43 0.42 0.40 0.35 0.29 0.24 0.20 0.17 0.16 0.15 0.13 0.13 0.13 0.13 0.13 0.12 0.10 0.09 0.08 0.08 0.08 0.08 0.08 0.08 0.08 0.08 0.08 0.08 0.08 0.08 0.08 0.08 0.08 0.08 0.07 0.07 0.07 0.07 0.06 0.06 0.06 0.06 0.06 0.07 0.07 0.07 0.07 0.08 0.11 0.14 0.16 0.16 0.16 0.16 0.16 0.16 0.15 0.14 0.13 0.12 0.12 0.11 0.10 0.10 0.10 0.10 0.09 0.08 0.07 0.07 0.06 0.06 0.06 0.06 0.06 0.06 0.06 0.06 0.06 0.06 0.06 0.07 0.07
Wind_Speed
26 25 24 23 22 21 21 20 20 20 20 20 20 20 19 19 19 18 18 17 17 17 17 17 18 18 19 20 21 21 22 23 24 25 26 27 28 29 30 30 31 32 33 34 35 35 36 37 37 38 38 38 39 39 39 40 40 39 38 38 38 37 37 37 38 39 41 40 40 41 42 42 41 41 41 41 42 42 41 41 41 41 41 41 41
27 25 24 23 22 22 21 21 20 21 20 20 20 20 20 19 19 18 18 18 17 17 17 18 18 18 19 20 21 22 22 23 24 25 26 27 28 28 29 30 31 32 33 34 35 36 36 37 37 37 38 38 38 39 39 40 40 40 39 39 38 38 37 37 38 39 41 41 41 41 41 41 41 42 41 41 41 42 41 41 41 41 41 41 41
27 26 25 24 23 22 22 21 21 21 21 21 20 20 20 20 19 19 18 18 18 18 18 18 18 19 19 20 21 22 23 23 24 25 26 27 28 28 29 30 31 32 33 34 35 35 36 36 37 37 38 38 38 39 39 40 40 40 40 39 39 39 38 38 38 39 40 41 41 41 41 41 41 41 42 41 41 41 41 41 41 41 41 41 40
27 26 25 24 23 23 22 22 22 22 22 21 21 21 21 20 19 19 18 18 18 18 18 18 18 19 20 20 21 22 23 23 24 25 26 27 28 28 29 30 31 32 33 34 35 35 36 36 36 37 37 38 38 39 39 40 40 40 40 40 39 39 39 38 38 39 40 41 41 41 41 41 41 41 41 41 41 40 40 41 41 40 41 41 40
28 27 26 25 24 23 23 22 22 22 22 22 21 21 21 20 20 19 19 18 18 18 18 18 19 19 20 21 21 22 23 23 24 25 26 27 28 28 29 30 31 32 33 34 34 35 35 36 36 36 37 38 38 39 39 40 40 40 40 40 40 39 39 39 39 39 40 41 42 42 41 41 41 41 41 41 41 40 40 40 40 40 40 40 40
29 27 26 25 24 24 23 23 23 23 22 22 21 21 21 20 20 19 19 19 18 18 18 18 19 19 20 21 22 22 23 23 24 25 26 27 28 28 29 30 31 32 33 34 34 35 35 36 36 36 37 38 39 39 40 40 40 40 40 40 40 40 39 39 39 39 39 40 41 42 41 41 41 41 41 41 41 41 41 40 39 39 40 40 40
29 28 27 26 25 24 24 24 23 23 23 22 22 22 21 20 20 20 19 19 19 19 19 19 19 20 20 21 22 22 23 24 24 25 26 27 28 29 29 30 31 32 33 34 35 35 35 36 36 37 37 38 39 39 40 40 40 40 40 40 40 40 40 40 39 39 40 41 41 42 42 41 41 41 41 41 41 41 41 41 41 40 40 40 40
29 28 27 26 26 25 24 24 24 23 23 23 22 22 21 20 20 20 20 19 19 19 19 19 19 20 21 21 22 23 23 24 25 25 26 27 28 29 29 31 32 32 33 34 35 35 36 36 36 37 38 38 39 39 40 40 40 40 40 40 40 40 40 40 40 40 40 41 42 42 42 42 41 41 41 41 41 41 41 42 42 42 41 41 41
30 29 28 27 26 25 25 24 24 24 23 23 23 22 21 21 20 20 20 20 19 19 19 19 20 20 21 21 22 23 23 24 25 25 26 27 28 29 30 31 32 33 34 35 35 35 36 36 36 37 38 39 39 40 40 40 40 41 41 41 41 40 40 40 40 40 41 41 42 42 42 42 42 42 42 41 42 42 42 42 42 43 42 41 41
30 29 29 28 27 26 25 25 24 24 24 23 23 22 21 21 21 20 20 20 19 19 19 19 20 21 21 22 22 23 24 24 25 25 26 27 28 29 30 31 32 33 34 35 35 35 36 36 37 37 38 39 39 40 40 40 40 41 41 41 41 41 40 40 40 41 41 42 42 42 43 42 43 43 43 42 42 43 43 43 43 43 43 42 41
31 30 29 28 27 26 26 25 25 25 24 23 23 22 22 21 21 21 21 20 20 19 19 20 20 21 21 22 22 23 24 24 25 25 26 27 28 29 30 31 32 33 34 34 35 35 36 36 37 38 38 39 39 40 40 40 40 40 41 41 41 41 41 41 41 41 41 42 42 43 43 43 43 43 43 43 43 43 43 43 43 43 43 43 42
31 30 29 28 28 27 26 26 25 25 24 24 23 22 22 22 22 21 21 21 20 19 20 20 21 21 22 22 23 23 24 24 25 25 26 27 28 29 30 31 32 33 34 34 35 35 36 36 37 38 38 39 39 40 40 40 40 40 41 41 42 41 41 41 41 41 42 42 42 43 43 43 44 44 44 44 44 44 44 43 43 43 43 43 43
31 30 30 29 29 28 27 26 26 25 24 24 23 23 22 22 22 22 22 21 20 20 20 21 21 22 22 22 23 23 24 24 25 25 26 27 28 29 30 31 32 33 33 34 34 35 36 37 37 38 39 39 40 40 40 40 40 40 41 41 41 42 41 41 41 41 42 42 42 43 43 44 44 44 44 45 45 45 44 44 43 43 43 43 43
32 31 30 30 29 28 27 27 26 25 24 24 23 23 22 22 23 22 22 21 20 20 20 21 22 22 22 22 23 23 24 24 25 25 26 27 28 29 30 31 32 33 34 34 35 35 36 37 38 39 39 40 40 40 40 40 40 40 40 41 41 41 42 41 41 42 42 42 43 44 44 44 45 45 46 46 45 45 45 45 45 44 43 44 44
33 32 31 31 30 29 28 27 26 25 25 25 24 23 23 23 23 23 22 21 21 20 21 21 22 22 22 23 23 24 24 24 25 25 26 27 28 29 30 31 32 33 34 34 35 35 36 37 38 39 40 40 41 41 41 41 41 40 41 41 41 41 41 41 41 42 42 43 43 44 45 45 45 46 47 46 46 46 46 46 46 45 44 44 43
34 33 32 31 30 29 29 28 26 25 25 25 24 23 23 23 23 23 22 22 21 21 21 22 22 22 22 23 23 24 24 24 25 25 26 27 28 29 30 31 32 33 34 35 35 36 37 37 38 39 40 41 41 42 42 41 41 41 41 41 41 41 41 41 42 42 43 44 45 45 45 46 46 47 47 47 47 47 46 46 45 44 44 43 43
35 34 32 31 30 30 29 28 27 26 26 25 24 24 24 24 23 23 22 22 21 21 22 22 22 22 23 23 23 24 24 24 25 26 26 27 28 29 30 31 32 34 35 35 36 36 37 38 39 40 41 41 42 42 42 42 41 42 42 42 42 42 42 42 42 43 44 45 45 46 46 46 47 47 47 47 47 47 47 46 45 44 43 43 41
35 34 33 32 31 30 29 28 27 27 26 25 24 24 24 24 23 23 23 22 22 22 22 22 23 23 23 23 23 24 24 24 25 26 26 27 28 29 30 31 33 34 35 36 36 37 37 38 39 40 41 42 42 42 42 42 42 42 42 42 43 43 42 42 43 44 44 45 45 46 46 47 47 47 47 47 47 47 46 45 45 43 42 42 41
35 34 33 31 31 30 30 29 28 27 26 25 25 24 24 24 24 23 23 22 22 22 22 23 23 23 23 23 23 24 24 24 25 26 26 27 28 29 30 31 33 34 35 36 36 37 38 39 39 40 41 42 43 43 43 42 42 42 42 42 43 43 43 43 44 44 45 45 46 46 46 46 46 46 47 47 47 46 45 44 43 42 42 41 41
35 34 32 31 30 30 30 29 28 27 26 25 25 24 24 24 24 23 23 23 23 23 23 23 23 23 23 23 23 24 24 25 25 26 26 27 28 29 30 31 33 34 35 36 36 37 38 39 39 40 41 42 43 43 43 43 43 43 43 42 43 43 43 44 44 45 45 45 46 46 46 46 46 47 47 47 47 46 44 43 42 41 41 41 40
34 33 32 31 31 31 30 29 28 27 26 25 25 25 25 24 24 23 23 23 23 23 23 23 23 23 24 24 24 24 24 25 25 26 26 27 28 29 30 31 32 34 35 36 36 37 38 39 40 41 42 43 43 43 43 43 43 43 43 43 43 44 44 44 45 45 45 45 46 46 46 47 47 47 47 47 46 44 43 42 41 40 40 40 39
34 33 32 31 31 31 30 30 28 27 26 25 25 25 25 24 24 23 23 23 23 23 23 23 23 24 24 24 24 24 24 25 25 25 26 27 28 29 30 31 32 33 35 36 36 37 38 39 40 41 42 43 43 44 44 44 43 43 43 43 44 44 44 44 44 44 44 45 46 46 47 47 47 48 48 47 45 43 42 41 40 40 39 39 39
33 32 32 31 31 31 30 29 28 27 26 25 25 25 25 24 24 24 24 24 23 23 23 23 24 24 24 24 24 24 24 25 25 25 26 27 28 29 30 31 32 33 34 36 36 37 39 39 41 42 43 44 44 44 44 44 43 43 43 43 44 44 44 43 43 44 45 45 46 46 47 47 48 48 48 46 44 43 41 41 40 40 39 39 38
33 32 32 31 31 30 30 29 28 27 26 25 25 25 24 24 24 24 24 24 24 23 23 23 24 24 24 24 24 24 24 25 25 26 26 27 28 29 30 31 33 34 34 35 37 38 39 40 41 43 44 44 44 44 44 43 43 43 43 44 44 44 43 43 43 44 45 46 46 47 47 48 49 49 48 46 44 42 41 40 40 39 39 39 38
33 32 32 31 30 30 29 28 28 27 26 25 25 25 24 24 24 24 24 24 24 24 24 24 24 24 25 24 24 24 24 25 25 26 27 28 28 29 31 32 33 34 35 36 37 38 40 41 42 43 44 44 44 44 43 43 42 43 43 44 44 43 43 43 43 44 45 46 46 47 48 48 48 48 47 45 43 41 40 39 39 39 38 38 38
33 32 31 30 30 29 28 28 27 27 26 26 25 25 24 24 24 24 24 24 24 24 24 24 24 25 25 24 25 25 24 25 25 26 27 27 28 29 31 32 33 34 35 36 37 39 40 41 42 43 44 44 44 43 43 43 43 43 43 43 43 43 42 43 44 45 45 46 47 47 48 48 48 48 46 44 41 40 39 39 39 38 38 37 37
32 31 30 30 29 28 28 27 27 26 26 26 25 24 24 24 24 24 24 24 24 24 24 24 25 25 25 25 25 25 25 25 25 26 27 27 28 30 31 33 33 34 35 36 37 39 40 41 42 43 43 43 43 43 43 43 42 42 43 43 43 42 42 43 44 45 46 46 47 48 48 48 48 47 45 42 40 39 39 39 39 38 38 37 37
31 30 30 29 28 28 28 27 27 26 26 26 25 24 24 24 25 25 25 24 24 24 24 25 25 25 25 25 25 25 25 25 25 26 27 28 29 30 32 33 33 34 35 36 38 39 40 41 42 43 43 43 43 43 42 42 42 42 43 43 43 43 43 43 44 45 46 46 47 48 48 48 47 46 43 41 40 39 39 39 39 38 38 38 37
30 29 29 28 28 28 27 27 27 26 26 25 25 24 24 25 25 25 25 24 24 24 24 25 25 25 25 25 25 25 25 25 25 26 27 28 29 31 32 33 33 34 35 37 38 39 40 41 42 42 43 43 43 42 42 42 42 43 43 43 43 43 43 44 45 45 46 47 47 48 48 48 47 45 42 41 40 39 39 39 38 38 38 38 38
29 29 28 28 28 27 27 27 27 26 25 25 24 24 24 25 25 25 24 24 24 25 25 25 25 25 25 25 25 25 25 25 26 26 28 29 30 31 32 33 33 34 36 37 38 39 40 41 42 42 43 43 43 42 42 42 42 43 43 43 43 43 43 44 45 46 46 47 47 48 48 48 46 44 42 40 39 39 39 39 39 39 39 38 38
28 28 28 28 28 27 27 27 26 25 25 25 24 24 24 25 25 25 25 24 24 25 26 26 25 25 25 25 25 25 26 26 27 27 28 29 30 31 32 33 33 34 36 37 38 38 40 41 42 42 43 43 43 42 42 42 42 43 43 43 43 43 44 45 45 46 47 48 48 48 48 47 45 43 41 40 39 39 39 39 39 39 39 39 39
28 28 27 27 28 27 27 26 26 25 25 24 24 25 25 25 25 25 25 25 25 25 26 26 26 25 25 25 25 25 26 26 27 28 29 30 31 31 32 33 33 35 36 37 37 38 39 41 42 43 43 43 42 42 42 42 43 43 43 43 43 44 45 45 46 47 48 48 48 48 48 46 44 42 40 39 39 39 39 40 40 39 39 39 39
28 28 27 27 27 27 27 26 25 25 25 25 25 25 25 25 25 25 25 25 26 26 26 26 26 25 25 25 25 26 26 26 27 28 29 30 30 31 32 32 34 35 36 36 37 38 40 41 42 43 43 43 43 43 43 43 43 43 43 43 44 45 45 46 47 48 48 48 48 48 47 46 44 41 40 39 39 40 40 40 40 40 40 40 39
28 28 28 27 27 27 26 26 25 25 25 25 25 25 25 25 25 24 24 25 25 26 26 26 26 25 25 25 25 26 27 27 28 28 29 30 30 31 31 32 34 35 35 36 37 38 40 41 42 43 43 43 43 43 43 43 43 43 43 44 44 45 46 46 47 47 47 48 48 47 47 45 43 41 40 39 40 40 40 41 41 41 40 40 40
29 29 28 28 27 27 26 26 25 25 25 25 25 25 25 25 25 25 24 25 25 26 26 25 25 25 25 25 25 26 26 27 28 28 29 29 30 30 31 32 33 34 35 36 37 39 40 41 42 43 43 43 43 43 43 43 43 43 44 44 45 46 46 46 47 47 48 48 48 47 46 45 42 41 40 40 40 40 41 41 41 41 41 41 40
29 29 29 28 28 27 26 26 25 25 25 25 25 25 25 25 25 25 25 25 25 25 25 24 24 24 24 24 25 25 26 27 27 28 28 29 29 30 31 32 33 34 36 36 37 39 40 41 42 43 43 43 43 43 43 43 43 44 44 44 45 46 46 46 47 48 49 49 48 47 46 44 42 40 40 40 40 41 41 42 42 42 41 41 40
29 29 28 28 27 27 26 25 25 25 25 25 25 25 25 25 25 25 25 25 25 25 25 24 23 23 24 24 25 25 26 27 27 27 28 28 29 30 31 32 33 35 36 37 38 39 40 42 42 43 43 43 43 43 43 43 43 44 44 45 45 46 47 47 48 49 49 49 48 47 46 44 42 41 40 41 41 41 42 42 42 42 42 41 41
29 29 29 28 27 26 26 25 25 25 25 25 25 25 25 25 25 25 25 25 25 25 25 24 23 23 24 24 24 25 26 26 26 27 27 28 28 30 31 32 34 35 36 37 38 39 40 42 42 43 43 43 43 43 43 43 44 44 45 45 45 46 47 48 49 49 49 49 48 47 45 43 42 41 41 41 42 42 42 42 42 42 42 42 41
29 29 29 28 28 27 26 25 24 24 24 25 24 24 24 24 24 25 25 25 25 25 25 24 23 24 24 24 24 25 25 26 26 26 27 28 29 30 31 32 34 35 36 37 38 39 41 42 42 43 43 42 42 43 43 43 44 44 45 45 46 46 47 48 48 49 49 49 48 47 45 43 42 42 42 42 42 43 43 43 43 43 43 42 41
29 29 29 28 28 27 26 25 25 24 24 24 24 24 24 24 24 25 25 25 25 25 24 24 23 24 24 24 24 25 25 25 26 26 27 28 29 30 31 32 34 35 36 37 38 39 41 42 42 42 42 42 42 43 43 44 44 44 44 45 46 47 48 48 49 49 49 49 48 47 45 43 42 42 43 43 43 43 43 43 43 43 42 41 40
29 28 28 28 27 26 26 25 25 25 25 24 24 23 23 23 24 25 25 25 25 24 24 23 23 24 23 24 24 24 25 25 26 26 27 28 29 30 31 33 34 35 36 37 38 39 41 41 42 42 42 42 42 43 43 44 44 44 44 45 46 47 48 49 50 50 50 49 48 46 45 43 43 43 44 44 44 44 44 44 43 43 42 40 38
29 28 28 27 27 26 26 25 25 25 24 24 23 23 23 23 24 24 24 24 24 24 23 23 23 23 23 23 23 24 24 25 26 27 27 28 29 30 31 32 33 34 35 37 38 40 40 41 41 42 42 42 42 43 43 44 44 44 45 46 47 48 49 50 50 50 50 49 48 46 45 44 44 44 44 45 45 44 44 44 43 42 40 38 36
29 28 28 27 26 26 26 25 25 24 24 23 23 22 23 23 23 23 24 24 23 23 23 23 23 23 23 23 23 23 24 25 26 26 27 28 29 30 31 32 33 34 35 37 38 40 40 41 41 41 41 42 42 43 44 44 45 45 46 47 48 49 50 50 51 51 50 48 47 46 45 45 45 45 45 45 45 45 45 44 42 40 38 36 33
28 28 28 27 26 26 25 25 25 24 24 23 22 22 22 22 23 23 23 23 22 22 22 22 22 22 23 22 22 23 24 25 25 26 27 28 29 30 31 32 33 34 35 37 38 40 40 40 41 41 41 42 42 43 44 45 45 46 47 48 49 50 50 51 51 50 50 48 47 46 46 46 46 46 46 46 46 45 44 42 40 38 36 33 31
28 28 27 27 26 25 25 25 25 24 23 22 22 22 22 22 22 23 23 22 22 21 22 22 22 22 22 22 22 23 24 25 25 26 27 28 28 29 30 31 32 34 35 37 38 39 40 40 40 40 41 41 42 43 44 45 46 46 47 48 49 50 51 51 51 51 50 48 47 46 46 46 46 46 46 46 46 44 42 40 38 36 33 31 28
28 28 27 26 26 25 25 24 24 24 23 22 22 22 22 22 22 22 22 21 21 21 21 21 21 21 21 22 22 23 24 24 25 25 26 27 28 29 30 31 32 34 35 37 38 39 39 40 40 40 40 41 42 43 44 45 46 47 48 49 50 51 51 51 51 51 50 49 48 47 47 47 47 47 47 46 45 43 40 38 35 33 30 28 24
28 27 27 26 25 25 24 24 23 23 23 22 22 22 21 22 22 22 21 21 20 21 21 21 21 21 21 22 22 23 23 24 24 25 26 27 27 28 29 31 32 34 35 37 38 39 39 39 39 40 40 41 42 43 45 46 46 47 48 49 50 51 51 51 51 51 50 49 48 48 48 48 48 48 47 45 43 40 38 35 33 30 27 24 21
28 27 26 25 25 24 24 23 23 23 22 22 22 21 21 22 21 21 20 20 20 20 20 20 20 20 21 21 22 22 23 23 24 25 26 26 27 28 29 30 32 33 35 37 38 38 39 39 39 40 40 41 42 44 45 46 46 47 48 49 50 51 51 51 51 51 50 49 49 49 49 49 48 47 45 43 40 37 35 32 29 27 24 21 17
27 26 25 25 24 24 24 24 23 22 22 21 21 21 21 21 21 20 20 20 20 20 20 20 20 20 21 21 21 22 22 23 24 24 25 26 26 28 29 30 32 33 35 36 37 38 38 38 39 39 40 41 42 44 45 46 47 48 49 50 50 51 51 52 51 50 49 49 49 50 49 48 47 45 43 40 37 35 32 29 26 23 20 17 13
26 25 24 24 24 24 24 23 23 22 21 21 20 20 20 20 20 20 20 20 20 19 19 19 19 20 20 21 21 22 22 22 23 24 24 25 26 27 28 30 31 33 35 36 37 37 38 38 38 39 40 41 42 44 45 46 47 48 49 50 51 51 52 51 51 50 49 49 50 50 49 47 45 43 40 37 34 31 29 26 23 20 17 13 10
25 24 24 24 23 23 23 23 22 22 21 20 20 20 20 20 20 19 19 19 19 19 19 19 19 19 20 20 21 21 21 22 23 23 24 25 26 27 28 30 31 33 35 36 36 37 37 37 38 39 40 41 42 44 45 46 47 48 50 51 51 51 52 51 50 50 50 50 50 50 48 45 42 40 37 34 31 28 26 23 20 17 14 10 8
Wind_Direction
255 258 261 263 266 269 271 274 278 283 286 290 292 294 295 295 296 297 300 302 304 307 309 311 313 315 318 320 322 323 325 326 328 330 332 334 335 337 338 339 339 339 340 340 341 342 342 343 343 343 343 343 344 343 343 343 343 343 342 341 341 340 340 339 337 336 338 339 339 339 339 339 339 339 339 339 339 339 338 338 338 339 339 339 339
254 257 259 262 265 267 269 271 275 280 284 287 290 291 292 293 293 295 298 300 302 304 307 309 311 313 317 319 320 322 323 325 326 329 331 332 334 336 337 338 338 338 339 339 340 341 342 342 342 342 342 342 343 343 343 343 343 342 342 341 340 340 339 338 337 336 337 338 339 339 339 339 338 338 339 338 338 339 338 338 337 338 338 338 338
252 255 258 260 263 265 267 270 274 278 282 286 288 289 290 290 291 293 296 297 300 302 304 306 309 312 315 317 319 320 322 323 325 327 329 331 333 335 336 337 337 337 338 339 340 341 341 341 341 341 341 342 342 342 342 342 342 342 341 340 339 339 338 338 337 336 336 337 338 338 339 339 338 338 338 337 337 338 338 338 337 337 337 337 337
251 254 256 258 260 262 265 268 272 276 280 284 286 286 287 289 290 292 293 295 297 299 302 304 306 310 313 315 317 319 320 322 324 326 327 330 332 334 335 336 336 337 337 338 339 340 340 340 340 341 341 341 341 342 342 342 342 341 340 340 339 338 338 338 337 336 336 336 337 338 338 338 338 337 337 337 337 337 337 337 337 337 336 336 336
250 253 254 256 258 261 263 266 270 274 278 282 283 284 286 287 288 290 291 293 295 297 299 302 304 308 311 313 316 317 318 320 323 325 327 329 331 333 334 335 335 336 337 337 338 339 339 339 340 340 340 340 341 341 341 341 341 341 340 340 339 338 338 338 337 336 336 335 336 337 338 338 337 337 337 337 337 336 336 336 336 336 336 336 336
249 252 253 255 257 259 261 265 269 272 276 280 282 283 284 285 287 288 289 290 292 295 297 300 303 306 309 312 314 315 317 319 321 324 326 328 330 332 333 333 334 335 336 337 337 338 338 338 339 339 339 340 340 340 340 340 340 340 339 339 339 338 337 337 336 336 336 335 336 337 337 338 338 338 338 337 337 336 336 336 336 336 336 336 336
248 250 252 254 256 257 260 264 268 271 275 278 280 281 283 284 285 286 287 288 290 292 295 298 301 305 308 310 312 314 316 318 321 324 326 328 330 331 332 332 333 334 335 336 337 337 338 338 338 338 338 339 339 339 340 340 339 339 339 339 338 338 337 337 336 336 336 336 336 336 337 337 337 337 338 337 337 336 336 336 336 336 336 335 335
247 249 251 252 254 256 259 263 267 270 274 277 279 280 281 282 283 284 285 286 288 290 294 297 300 303 306 308 310 312 314 317 320 323 325 327 329 330 331 331 332 333 335 336 336 337 337 337 337 337 338 338 338 339 339 339 339 339 338 338 338 337 337 336 336 336 336 336 336 336 336 337 337 337 337 338 337 336 336 335 334 335 335 334 334
246 248 249 250 252 255 258 262 265 269 273 276 277 278 280 281 281 282 283 284 286 289 292 296 299 301 304 306 309 311 313 316 320 322 324 326 328 329 330 330 331 333 334 335 336 336 336 336 336 336 337 337 337 338 338 338 338 338 338 337 337 336 336 336 336 336 336 335 335 336 336 336 337 337 337 338 337 336 335 335 333 333 333 333 333
245 247 248 249 251 253 257 261 264 267 271 274 275 277 278 278 279 280 280 281 284 287 291 294 297 300 302 305 307 309 312 315 318 321 323 325 326 327 328 329 331 333 334 335 336 336 336 336 336 336 336 336 337 337 337 337 336 336 336 336 336 336 335 335 335 335 335 335 335 335 335 335 336 336 336 336 336 335 334 334 333 333 333 332 332
244 246 247 248 250 252 255 259 262 266 269 272 273 275 276 277 277 278 278 279 282 285 290 293 295 298 301 303 305 308 311 314 317 319 322 324 325 326 327 328 330 332 334 335 336 336 335 335 335 335 336 336 336 336 336 336 336 335 335 335 335 334 334 334 334 334 334 334 334 334 334 334 335 335 334 335 335 334 334 333 332 332 332 331 331
243 244 246 247 248 251 254 257 260 264 267 270 272 273 274 275 275 276 275 277 280 284 288 291 293 296 299 301 304 307 310 313 316 318 321 323 324 325 325 327 330 332 333 334 335 335 335 335 335 335 335 336 336 336 336 335 335 335 334 334 334 333 333 333 333 333 333 333 333 334 333 333 334 334 334 334 333 333 332 332 332 331 331 330 329
242 243 245 246 247 250 253 256 259 263 266 269 271 272 273 273 273 273 273 275 279 283 286 289 292 295 297 300 303 306 309 312 315 318 320 322 324 324 324 326 329 331 333 334 334 334 334 334 334 334 335 335 336 336 335 335 335 334 334 334 334 334 333 332 332 332 332 332 332 332 332 333 333 333 333 332 331 331 331 331 331 330 330 329 328
241 242 244 245 246 249 252 255 258 262 265 268 270 271 271 271 271 271 272 274 278 281 284 287 290 293 296 298 301 304 307 310 314 317 319 321 323 323 323 326 328 330 332 333 333 333 333 333 334 334 335 335 335 335 335 335 335 335 334 334 334 334 334 333 332 332 332 332 331 331 331 331 331 331 331 331 330 330 330 330 330 329 328 328 327
240 242 243 244 246 249 251 254 257 261 264 267 269 270 269 269 269 270 271 273 276 280 282 285 289 292 294 297 300 303 306 309 313 316 318 320 321 322 323 325 327 329 331 332 332 333 333 333 333 334 334 335 335 335 335 335 335 334 334 334 334 334 334 333 333 333 332 332 331 330 331 331 330 330 331 331 330 330 329 329 328 328 327 327 327
240 241 242 243 246 248 250 253 256 260 263 265 267 268 267 268 268 268 269 272 275 278 281 284 287 290 293 296 299 302 306 309 312 315 317 319 320 321 322 324 326 328 330 331 332 332 332 333 334 334 334 334 335 334 334 334 334 334 333 333 333 334 334 333 333 333 332 331 331 330 330 330 330 330 330 330 329 329 329 328 328 328 328 328 328
239 241 242 243 245 247 249 252 255 259 262 264 266 266 266 266 267 267 268 271 274 276 280 283 286 289 292 295 298 301 305 308 311 314 316 318 319 320 321 323 326 328 329 330 331 332 332 333 333 334 334 334 334 334 334 334 333 333 333 333 333 333 333 334 333 333 332 332 331 331 331 330 330 330 330 330 330 330 329 329 329 329 328 328 329
239 240 241 242 244 246 249 252 255 258 261 263 264 265 265 265 266 266 268 270 273 276 279 282 285 288 291 294 297 300 304 307 310 313 316 317 318 319 321 323 325 327 329 330 331 331 332 333 333 334 334 334 334 334 334 333 333 333 333 332 332 332 333 334 334 333 333 333 332 332 332 332 332 331 331 331 330 330 329 329 329 329 329 328 328
238 239 240 242 244 246 249 251 254 258 260 262 263 264 264 265 265 266 268 270 272 275 278 281 284 287 290 293 296 299 303 307 309 312 314 316 317 318 320 322 325 327 328 330 330 331 332 333 333 333 334 334 334 333 333 333 333 333 333 332 332 332 333 334 334 333 334 333 333 333 333 333 333 332 332 331 331 330 329 328 329 329 329 328 329
237 238 240 242 244 246 249 251 254 258 261 262 262 263 264 265 265 265 267 269 271 274 276 280 284 287 289 292 295 298 302 306 309 311 313 315 316 317 319 322 324 326 328 329 330 331 332 333 333 333 333 333 333 333 333 333 333 333 333 332 332 332 333 333 333 333 333 333 333 334 334 334 333 333 333 332 331 331 330 329 329 329 329 329 329
236 238 239 241 243 246 248 251 254 258 261 262 262 263 263 264 265 265 267 268 270 272 276 279 283 286 289 291 294 297 301 304 308 311 312 314 315 316 318 321 324 326 327 328 329 330 332 333 333 333 333 333 333 333 333 333 333 333 333 332 332 332 332 332 332 333 333 333 333 334 334 334 334 334 333 333 332 332 331 330 329 329 329 330 330
236 237 238 240 243 246 248 250 253 258 261 262 262 262 263 264 265 265 266 267 269 271 275 279 282 285 288 291 294 297 300 303 307 310 311 313 314 315 317 320 323 325 326 328 329 330 331 332 333 333 333 333 333 333 333 333 333 333 332 332 332 332 332 332 332 333 333 333 334 334 334 334 334 334 334 333 333 332 331 331 330 330 329 329 330
235 236 238 241 244 246 247 250 253 257 260 261 261 261 262 263 264 265 265 266 268 271 274 278 281 284 287 290 293 296 299 302 305 308 311 312 313 314 316 318 322 324 325 327 328 329 330 331 332 332 332 332 332 333 333 333 333 332 332 332 332 332 332 332 332 333 333 333 334 334 334 334 334 334 334 333 333 332 332 331 331 330 330 329 329
234 236 238 241 243 245 247 250 252 255 258 260 260 260 261 262 263 264 265 266 268 270 273 277 280 283 286 289 292 295 299 302 305 307 309 311 312 313 315 318 320 322 324 326 327 328 329 330 331 331 331 332 332 332 332 332 332 332 332 332 332 333 333 333 333 333 333 333 334 334 334 334 334 334 334 333 333 332 332 332 331 331 330 330 329
234 236 238 240 242 244 247 249 251 254 257 259 260 260 260 261 262 263 264 265 267 269 273 276 279 282 285 288 291 295 298 302 305 307 308 310 312 313 315 317 319 321 323 325 326 327 328 329 330 330 331 331 332 332 332 332 332 332 332 332 333 333 333 333 333 333 333 333 334 334 334 334 334 334 333 333 332 332 333 333 332 332 331 331 330
234 236 238 240 242 243 245 248 250 252 255 258 260 260 259 260 261 262 263 264 266 269 272 275 278 281 284 288 291 294 298 301 304 307 308 310 312 313 315 317 318 320 322 323 324 325 327 328 329 330 331 332 332 332 332 332 332 332 332 332 333 333 333 333 333 333 333 333 334 334 334 334 334 334 333 333 333 333 333 333 333 333 333 332 332
234 236 238 240 241 242 245 247 248 251 254 257 259 260 259 260 261 262 262 263 265 268 271 274 277 280 284 287 290 294 297 300 303 306 308 310 312 314 315 317 318 320 322 323 325 326 327 328 329 330 331 331 331 331 332 332 332 332 333 333 333 333 333 333 333 333 333 333 333 334 334 334 334 334 334 333 333 333 333 333 333 333 333 333 332
233 235 237 239 240 242 244 246 247 250 253 255 257 258 259 260 261 262 262 263 265 268 270 273 276 279 283 286 290 293 296 299 302 306 308 310 312 314 315 317 319 321 323 324 325 326 327 328 329 330 331 332 332 332 332 332 333 333 333 333 333 333 333 333 333 333 333 333 333 334 334 334 334 334 334 334 333 333 334 333 333 333 333 333 333
232 234 236 238 240 243 244 245 247 249 252 255 257 258 259 260 261 263 263 264 266 269 271 273 276 279 283 286 289 292 296 299 302 305 307 309 311 313 315 317 319 321 322 324 325 326 327 328 330 331 332 332 332 332 332 332 332 332 333 333 333 333 333 333 333 333 333 333 333 334 334 334 334 334 334 333 333 334 334 333 333 333 333 333 332
233 234 236 238 240 242 243 245 246 249 252 254 257 258 260 261 262 264 264 265 266 269 271 274 277 280 283 285 288 291 295 299 302 305 306 308 310 312 314 315 318 320 321 323 324 325 327 328 329 330 331 331 331 332 332 332 332 332 333 333 333 333 333 333 333 333 333 333 334 334 334 334 334 334 333 333 333 333 333 333 333 333 333 332 332
233 234 236 238 240 241 243 244 245 249 252 254 256 258 260 262 263 264 265 265 266 268 270 273 276 279 281 285 288 291 294 297 301 303 305 308 309 311 313 315 317 319 321 323 324 325 327 328 329 330 331 331 331 331 331 331 332 332 333 333 333 333 333 333 333 333 333 333 334 334 334 334 334 333 333 333 333 333 333 333 333 333 333 332 331
232 234 236 238 239 241 242 243 245 248 251 254 256 258 260 262 263 263 263 265 266 267 269 272 274 277 280 284 288 291 294 297 300 302 305 307 309 311 313 315 317 319 321 322 324 325 326 327 328 329 330 330 330 330 331 331 331 332 332 332 332 332 333 333 333 333 333 333 334 334 334 334 334 333 332 332 332 333 333 333 333 333 332 332 331
232 234 236 238 239 240 241 243 246 249 251 254 256 257 259 261 263 263 264 265 266 267 269 271 273 275 279 283 287 290 294 297 300 302 304 306 309 311 313 314 317 319 321 322 324 325 326 327 328 329 329 330 330 330 330 331 331 332 332 332 332 332 332 333 333 333 333 333 333 334 334 334 333 332 332 332 332 332 332 333 333 332 332 331 331
234 235 236 237 238 240 241 243 246 249 252 255 256 257 259 260 261 263 265 266 266 268 269 270 271 275 279 283 286 289 293 296 299 301 304 306 309 311 312 314 317 318 320 322 323 324 325 326 327 328 329 329 329 330 330 331 331 331 332 331 331 332 332 333 333 333 333 333 333 334 334 334 333 332 332 331 332 332 332 332 332 332 331 331 330
235 236 236 237 239 241 242 244 246 249 252 255 256 258 259 260 261 262 264 265 266 268 269 270 271 274 279 284 287 290 293 296 299 301 303 306 308 311 313 315 317 319 321 322 323 324 325 326 327 328 329 329 329 330 330 331 331 331 331 331 332 332 332 333 333 333 333 333 333 333 334 333 332 332 331 331 331 331 331 331 331 331 330 330 329
235 235 235 237 240 242 243 245 247 250 253 256 257 258 259 260 261 263 264 265 266 267 269 271 273 276 279 283 287 290 293 296 298 300 303 306 308 311 313 315 317 319 321 322 323 324 325 326 327 328 329 329 329 330 330 330 331 331 331 331 331 332 332 333 333 333 333 333 333 333 333 333 332 331 331 330 330 330 330 330 330 330 329 329 329
233 234 235 238 240 242 244 246 249 251 255 256 257 258 259 259 261 263 264 265 266 267 268 270 273 277 280 283 286 290 293 295 298 300 303 305 308 310 313 315 317 319 320 322 323 324 325 326 327 328 328 329 329 329 330 330 330 331 331 331 331 332 332 332 332 332 332 333 333 333 333 332 331 331 330 330 330 330 330 330 329 329 329 328 328
233 233 235 237 239 241 244 247 249 253 256 257 257 259 259 260 261 262 264 265 265 266 267 269 273 277 280 283 287 290 293 295 297 300 303 305 308 310 312 314 317 318 320 321 323 324 326 327 328 328 328 328 329 329 330 330 330 331 331 331 331 332 332 332 332 332 332 332 333 333 333 332 331 331 330 330 330 329 329 329 329 329 328 328 327
233 234 235 237 239 242 244 246 250 253 255 256 256 258 260 261 261 262 263 264 265 265 267 269 273 276 279 283 287 290 292 295 297 300 303 306 308 310 312 314 317 319 320 322 323 325 326 327 328 328 328 328 329 330 330 330 330 331 331 331 332 332 332 332 332 332 332 332 333 333 332 331 331 330 330 329 329 329 329 329 329 328 327 327 326
234 235 236 237 240 243 244 247 250 253 253 254 255 257 260 261 262 263 264 264 264 265 267 269 273 276 279 283 286 288 291 293 296 300 303 305 308 310 312 315 317 319 321 322 324 325 326 327 328 328 328 329 329 330 330 330 331 331 331 331 331 332 332 332 332 332 332 332 332 332 331 331 330 330 329 329 329 329 329 328 328 327 327 326 326
233 234 236 237 240 242 245 248 251 252 252 252 255 258 260 261 262 263 264 264 264 265 267 270 273 276 280 282 285 287 289 292 296 299 302 305 308 310 313 316 318 319 321 323 324 325 326 327 328 328 328 329 329 330 330 330 331 331 331 331 331 332 332 332 332 332 332 332 332 331 331 330 330 329 329 329 329 328 328 328 327 327 326 326 326
231 233 235 237 239 242 245 248 250 251 251 252 255 258 260 261 263 264 264 264 265 265 267 270 274 277 280 282 283 285 288 292 296 299 302 305 308 311 314 316 318 320 321 323 324 326 327 327 328 328 329 329 330 330 330 331 331 331 331 331 331 331 332 332 332 332 332 332 332 331 330 329 329 329 329 329 328 328 328 328 327 327 327 327 327
231 233 235 237 239 242 245 247 248 248 249 251 255 258 260 262 264 264 264 264 265 266 268 270 274 277 280 282 283 285 289 293 296 299 302 305 308 311 314 317 318 320 321 323 324 326 327 327 328 328 329 329 330 330 330 331 331 331 331 331 331 331 332 332 332 332 332 332 331 330 330 329 329 329 329 329 328 328 328 327 327 327 327 327 327
231 233 235 238 241 244 246 248 247 247 247 251 255 258 260 263 264 264 263 263 264 265 268 270 274 278 280 282 283 286 290 294 297 300 302 306 309 312 315 317 319 320 322 323 325 326 327 327 328 329 329 329 330 330 331 331 331 331 331 331 331 332 332 332 332 332 332 332 331 330 330 330 329 329 329 328 328 328 328 328 327 327 327 327 328
232 234 236 238 241 244 247 247 246 245 246 250 255 259 261 264 264 263 262 262 264 265 268 271 275 278 280 281 283 287 291 294 297 300 303 306 309 313 315 317 319 321 322 324 325 326 327 328 328 329 330 330 330 331 331 332 331 331 331 331 332 332 332 332 332 332 332 332 331 330 330 330 330 329 329 329 328 328 328 328 328 328 328 328 328
232 234 236 239 241 243 245 245 243 243 246 251 255 259 261 263 263 262 262 262 264 265 268 272 275 278 279 282 285 288 292 295 298 301 304 307 310 314 316 318 319 321 323 324 326 327 327 328 329 329 330 331 331 332 332 332 332 332 332 332 332 332 332 333 333 333 332 332 331 331 331 330 330 329 329 329 329 329 328 328 328 328 328 329 329
231 234 236 238 240 242 243 242 241 242 246 251 255 258 261 262 263 262 262 262 264 266 268 272 275 277 280 283 286 290 293 296 299 302 305 308 311 315 317 318 320 322 324 325 326 327 328 329 329 330 330 331 332 332 333 333 333 333 333 333 333 333 333 333 333 333 332 332 331 331 331 331 330 330 330 330 330 330 330 329 329 330 330 330 331
230 234 236 237 239 240 241 239 239 242 247 252 255 258 260 262 262 263 262 263 264 266 268 272 275 278 280 284 288 291 294 297 300 303 306 309 313 315 317 319 321 323 324 326 327 328 329 329 330 330 331 332 333 333 334 334 334 334 334 334 334 334 334 334 334 333 333 332 332 332 332 331 331 331 331 331 331 331 331 331 331 332 332 333 333
230 233 235 237 238 239 238 237 239 243 248 252 255 258 260 262 262 262 262 263 264 266 268 272 275 278 282 285 289 292 294 297 301 304 307 311 314 316 318 320 322 324 325 326 327 328 329 330 331 331 332 333 333 334 334 334 334 335 335 335 335 335 335 335 334 334 334 334 333 333 333 333 333 332 332 333 333 333 333 333 334 335 336 336 338
229 232 234 236 238 237 236 237 240 244 248 251 254 258 261 262 262 261 262 263 265 266 268 272 275 279 283 286 289 292 295 298 301 305 308 312 315 317 319 321 323 324 326 327 328 329 330 331 331 332 333 334 334 335 335 335 335 336 336 336 336 336 336 336 335 335 335 335 335 335 334 334 334 334 334 335 335 335 335 336 337 338 340 342 345
229 231 234 236 236 235 235 237 241 245 248 251 255 258 262 263 262 261 262 263 264 266 269 272 276 280 283 287 290 293 296 299 302 306 310 313 316 318 320 322 324 325 327 328 329 330 331 332 332 333 334 335 335 336 336 336 337 337 337 337 337 337 337 337 337 337 337 337 336 336 336 336 336 336 337 337 338 338 339 340 341 343 346 350 357